星链-1119 (STARLINK-1119 )

导读

STARLINK-1119是美国太空探索技术公司(SpaceX)星链计划中的低轨卫星,于2020年1月7日发射,旨在构建全球卫星互联网星座,为全球提供高速低延迟网络服务,尤其服务偏远地区及网络基础设施薄弱区域,推动全球互联覆盖。

基本信息
目录编号:
44928
目录名称:
STARLINK-1119
国际标识:
2020-001Q
轨道中心:
EARTH
卫星名称:
星链-1119
卫星全名:
星链-1119 (STARLINK-1119 )
卫星状态:
已陨落 最后检测时间 2024-05-15
发射日期:
2020-01-07 UTC
国别 :
美国 (US)
星等 :
--
该卫星已列入 空间交会检测服务 Space Conjunction Data Service (SCDS) ,当前飞行风险评估等级: 无高风险
轨道信息
数据来源 国际轨道数据
星历时间: 2024-05-15T18:08:24+0800
轨道信息已过期850天
半长轴: 6571.091km
偏心率: 0.0007991
轨道倾角: 53.044°
近地点辐角 287.937°
升交点赤经 3.678°
平近点角 247.407°
近地点: 187.705km
远地点: 198.207km
周期: 88.352分钟
每日圈数: 16.29846
详细信息
固有亮度:
5
最大亮度:
2.5
卫星平台:
Starlink V1.0
覆盖范围:
全球
运营商:
太空探索技术公司
运营商所在国:
美国
制造商(研发单位):
太空探索技术公司
制造商所在国:
美国
使用方式:
暂无
卫星简介
星链(Starlink)计划是由太空探索技术公司(SpaceX)提出的一个巨型低轨卫星互联网星座项目,计划在2019年至2024年间在太空搭建由约1.2万颗卫星组成的“星链”网络,其中1584颗将部署在地球上空550千米处的近地轨道,并从2020年开始工作。该卫星已陨落。
与全量物体交会距离演化趋势
与全量物体交会风险概率演化趋势